Terminal Aerodrome Forecast
Issued by NWS Corpus Christi, TX

Home | Current Version | Previous Version | Text Only | Print | Product List | Glossary On
Versions: 1 2 3 4 5 6 7 8 9 10 11 12 13 14 15 16 17 18 19 20 21
000
FTUS44 KCRP 222337
TAFCRP
TAF
KCRP 222337Z 2300/2324 14014KT P6SM SCT015 BKN250
     FM230400 14009KT P6SM SCT015 BKN100
      TEMPO 2305/2309 BKN015
     FM230900 15007KT P6SM VCSH BKN015 OVC080
     FM231400 15015G20KT P6SM VCTS SCT018CB BKN025 PROB30 2316/2319
      4SM TSRA BR BKN015CB OVC030
     FM231900 13018G24KT P6SM VCTS SCT035CB OVC100
      TEMPO 2319/2322 VRB15G30KT 2SM +TSRA BR OVC015CB=

USA.gov is the U.S. government's official web portal to all federal, state and local government web resources and services.